CW3642 Weather Reports


Display with metric or nautical units.
time (UTC)temp
F
wind
direction
speed
MPH
gust
MPH
rain 1hr
in
rain 24hr
in
rain mn
in
humidity
%
barometer
mb
20260506134333 44 360 0.0 0.0 0.00 0.00 0.00 56 1011.8
20260506133833 44 360 0.0 0.0 0.00 0.00 0.00 56 1011.8
20260506133333 43 360 0.0 0.0 0.00 0.00 0.00 58 1011.8
20260506132833 43 360 0.0 0.0 0.00 0.00 0.00 57 1011.8
20260506132333 43 360 0.0 0.0 0.00 0.00 0.00 58 1011.8
20260506131833 43 360 0.0 0.0 0.00 0.00 0.00 55 1011.7
20260506131333 43 360 0.0 0.0 0.00 0.00 0.00 61 1011.8
20260506130833 42 360 0.0 0.0 0.00 0.00 0.00 60 1011.8
20260506125833 42 360 0.0 0.0 0.00 0.00 0.00 61 1011.8
20260506124333 41 360 0.0 0.0 0.00 0.00 0.00 60 1011.7
20260506123833 41 360 0.0 0.0 0.00 0.00 0.00 62 1011.7
20260506123333 40 360 0.0 0.0 0.00 0.00 0.00 65 1011.8
20260506122333 39 360 0.0 0.0 0.00 0.00 0.00 70 1011.8
20260506121333 38 360 0.0 0.0 0.00 0.00 0.00 78 1011.6
20260506120333 36 360 0.0 0.0 0.00 0.00 0.00 83 1011.3
20260506115833 35 360 0.0 0.0 0.00 0.00 0.00 87 1011.2
20260506115333 34 360 0.0 0.0 0.00 0.00 0.00 90 1011.2
20260506114833 33 360 0.0 0.0 0.00 0.00 0.00 93 1011.2
20260506114333 31 360 0.0 0.0 0.00 0.00 0.00 93 1011.1
20260506113833 30 360 0.0 0.0 0.00 0.00 0.00 93 1011.0
20260506113333 29 360 0.0 0.0 0.00 0.00 0.00 93 1010.8
20260506112333 28 360 0.0 0.0 0.00 0.00 0.00 92 1010.7
20260506111833 28 360 0.0 0.0 0.00 0.00 0.00 91 1010.6
20260506111333 28 360 0.0 0.0 0.00 0.00 0.00 91 1010.6
20260506110833 28 360 0.0 0.0 0.00 0.00 0.00 91 1010.6
20260506110333 27 360 0.0 0.0 0.00 0.00 0.00 91 1010.4
20260506105833 27 360 0.0 0.0 0.00 0.00 0.00 90 1010.3
20260506105333 27 360 0.0 0.0 0.00 0.00 0.00 90 1010.6
20260506104833 28 360 0.0 0.0 0.00 0.00 0.00 90 1010.5
20260506104333 28 360 0.0 0.0 0.00 0.00 0.00 90 1010.5
20260506103833 28 360 0.0 0.0 0.00 0.00 0.00 89 1010.6
20260506103333 28 360 0.0 0.0 0.00 0.00 0.00 89 1010.5
20260506102833 28 360 0.0 0.0 0.00 0.00 0.00 89 1010.5
20260506102333 28 360 0.0 0.0 0.00 0.00 0.00 89 1010.4
20260506101833 28 360 0.0 0.0 0.00 0.01 0.00 88 1010.5
20260506100833 28 360 0.0 6.0 0.00 0.01 0.00 88 1010.3
20260506095842 28 360 0.0 6.0 0.00 0.01 0.00 87 1010.3
20260506095342 29 360 0.0 6.0 0.00 0.01 0.00 87 1010.4
20260506094842 29 360 0.0 6.0 0.00 0.01 0.00 86 1010.4
20260506094342 29 360 0.0 6.0 0.00 0.01 0.00 86 1010.5
20260506093842 29 360 0.0 6.0 0.00 0.01 0.00 85 1010.4
20260506093342 30 360 0.0 6.0 0.00 0.01 0.00 85 1010.5
20260506092842 30 360 0.0 6.0 0.00 0.01 0.00 84 1010.4
20260506092342 30 360 0.0 6.0 0.00 0.01 0.00 83 1010.4
20260506091842 31 360 0.0 6.0 0.00 0.01 0.00 82 1010.3
20260506091342 31 360 0.0 6.0 0.00 0.01 0.00 82 1010.4
20260506090842 31 360 0.0 6.0 0.00 0.01 0.00 81 1010.3
20260506090342 32 360 0.0 6.0 0.00 0.01 0.00 81 1010.4
20260506085842 32 360 0.0 6.0 0.00 0.01 0.00 80 1010.5
20260506085342 33 360 0.0 6.0 0.00 0.01 0.00 80 1010.4
20260506084842 33 360 0.0 6.0 0.00 0.01 0.00 80 1010.4
20260506084342 33 360 0.0 6.0 0.00 0.01 0.00 80 1010.4
20260506083842 34 360 0.0 6.0 0.00 0.01 0.00 80 1010.5
20260506083342 34 360 0.0 6.0 0.00 0.01 0.00 80 1010.5
20260506082842 34 360 0.0 6.0 0.00 0.01 0.00 80 1010.5
20260506082342 34 360 0.0 6.0 0.00 0.01 0.00 80 1010.5
20260506081843 34 360 0.0 6.0 0.00 0.01 0.00 80 1010.5
20260506081342 34 360 0.0 6.0 0.00 0.01 0.00 82 1010.5
20260506080842 34 360 0.0 6.0 0.00 0.01 0.00 82 1010.6
20260506080343 34 360 0.0 6.0 0.00 0.01 0.00 82 1010.5
20260506073342 35 360 0.0 6.0 0.00 0.01 0.00 81 1010.5
20260506072342 35 360 0.0 6.0 0.00 0.01 0.00 80 1010.6
20260506071842 35 360 0.0 6.0 0.00 0.01 0.00 79 1010.7
20260506071342 35 360 0.0 6.0 0.00 0.01 0.00 78 1010.7
20260506070842 36 360 0.0 6.0 0.00 0.01 0.00 77 1010.8
20260506070342 36 360 0.0 6.0 0.00 0.01 0.00 76 1010.8
20260506062342 37 360 0.0 6.0 0.00 0.01 0.00 76 1010.6
20260506061342 37 360 4.0 6.0 0.00 0.01 0.00 76 1010.4
20260506060843 37 360 3.0 15.0 0.00 0.01 0.00 76 1010.5
20260506051320 37 360 0.0 15.0 0.00 0.01 0.00 75 1010.5
20260506050320 37 360 0.0 15.0 0.00 0.01 0.00 75 1010.3
20260506044820 37 360 0.0 15.0 0.00 0.01 0.00 73 1010.1
20260506044320 37 360 0.0 15.0 0.00 0.01 0.00 73 1010.1
20260506043819 37 360 4.0 15.0 0.00 0.01 0.00 73 1010.1
20260506042819 38 360 3.0 15.0 0.00 0.01 0.00 72 1010.1
20260506042319 38 360 3.0 15.0 0.00 0.01 0.00 73 1010.1
20260506041819 38 360 2.0 15.0 0.00 0.01 0.00 73 1010.0
20260506041319 38 360 3.0 15.0 0.00 0.01 0.00 73 1010.1
20260506040819 38 360 2.0 15.0 0.00 0.01 0.00 73 1010.1
20260506040319 38 360 5.0 15.0 0.00 0.01 0.00 73 1010.1
20260506035849 38 360 4.0 15.0 0.00 0.01 0.00 73 1010.1
20260506035349 38 360 5.0 15.0 0.00 0.01 0.01 73 1010.1
20260506034820 38 360 3.0 15.0 0.00 0.01 0.01 73 1010.1
20260506033819 38 360 5.0 15.0 0.00 0.01 0.01 73 1009.8
20260506033320 38 360 5.0 15.0 0.00 0.01 0.01 75 1009.7
20260506032849 38 360 8.0 15.0 0.00 0.01 0.01 75 1009.7
20260506031819 38 360 10.0 15.0 0.00 0.01 0.01 76 1009.7
20260506030850 38 360 2.0 15.0 0.00 0.01 0.01 76 1009.5
20260506030319 38 360 5.0 15.0 0.00 0.01 0.01 77 1009.5
20260506025849 38 360 2.0 15.0 0.00 0.01 0.01 77 1009.5
20260506025349 38 360 1.0 15.0 0.00 0.01 0.01 78 1009.5
20260506024819 38 360 3.0 15.0 0.00 0.01 0.01 78 1009.5
20260506024319 38 360 2.0 15.0 0.00 0.01 0.01 78 1009.4
20260506023849 39 360 2.0 15.0 0.00 0.01 0.01 78 1009.3
20260506023349 39 360 9.0 15.0 0.00 0.01 0.01 78 1009.2
20260506022820 39 360 4.0 15.0 0.00 0.01 0.01 78 1009.1
20260506022349 39 360 3.0 15.0 0.00 0.01 0.01 79 1009.1
20260506021850 39 360 4.0 15.0 0.00 0.01 0.01 79 1009.1
20260506021320 39 360 0.0 15.0 0.00 0.01 0.01 79 1009.0
20260506020819 39 360 5.0 15.0 0.00 0.01 0.01 79 1008.8
20260506014839 39 360 3.0 9.0 0.00 0.01 0.01 77 1008.5
20260506014339 39 360 5.0 9.0 0.00 0.01 0.01 77 1008.3
20260506013839 40 360 2.0 9.0 0.00 0.01 0.01 77 1008.3
20260506013339 40 360 4.0 9.0 0.00 0.01 0.01 78 1008.3
20260506012838 40 360 3.0 9.0 0.00 0.01 0.01 78 1008.2
20260506011838 40 360 6.0 9.0 0.00 0.01 0.01 78 1008.1
20260506011339 40 360 5.0 9.0 0.00 0.01 0.01 77 1008.1
20260506010339 41 360 12.0 9.0 0.00 0.01 0.01 76 1007.9
20260506005839 41 360 3.0 9.0 0.00 0.01 0.01 76 1007.8
20260506005339 41 360 1.0 9.0 0.00 0.01 0.01 76 1007.8
20260506004839 41 360 3.0 9.0 0.00 0.01 0.01 76 1007.6
20260506004339 42 360 4.0 9.0 0.00 0.01 0.01 75 1007.7
20260506003839 42 360 5.0 9.0 0.00 0.01 0.01 74 1007.7
20260506003339 42 360 1.0 9.0 0.00 0.01 0.01 73 1007.7
20260506002839 42 360 3.0 9.0 0.00 0.01 0.01 72 1007.6
20260506002339 42 360 5.0 9.0 0.00 0.01 0.01 72 1007.5
20260506001838 43 5 2.0 9.0 0.00 0.01 0.01 71 1007.5
20260506001339 43 360 4.0 9.0 0.00 0.01 0.01 72 1007.4
20260506000839 44 360 0.0 9.0 0.00 0.01 0.01 72 1007.5
20260506000339 44 360 1.0 9.0 0.00 0.01 0.01 70 1007.4
20260505235839 45 360 3.0 9.0 0.00 0.01 0.01 67 1007.4
20260505234839 46 360 4.0 9.0 0.00 0.02 0.01 60 1007.1
20260505234339 46 360 1.0 9.0 0.00 0.02 0.01 59 1006.9
20260505233839 47 360 0.0 9.0 0.00 0.03 0.01 58 1007.0
20260505233339 49 360 0.0 9.0 0.00 0.03 0.01 55 1007.0
20260505232339 51 360 0.0 9.0 0.00 0.04 0.01 47 1006.8
20260505231839 52 360 0.0 9.0 0.00 0.04 0.01 44 1006.6
20260505231339 52 360 0.0 9.0 0.00 0.05 0.01 44 1006.7
20260505230838 51 360 1.0 9.0 0.00 0.06 0.01 44 1006.7
20260505224838 51 360 6.0 9.0 0.00 0.08 0.01 43 1006.8
20260505223838 51 360 2.0 9.0 0.00 0.08 0.01 46 1006.7
20260505222839 51 360 1.0 9.0 0.00 0.08 0.01 45 1006.7
20260505222339 51 360 1.0 9.0 0.00 0.08 0.01 44 1006.7
20260505221838 51 360 6.0 9.0 0.00 0.08 0.01 44 1006.7
20260505221338 51 360 1.0 9.0 0.00 0.08 0.01 45 1006.7
20260505220838 52 360 3.0 9.0 0.00 0.08 0.01 45 1006.7
20260505215821 53 360 4.0 6.0 0.00 0.08 0.01 44 1006.5
20260505215321 53 360 8.0 6.0 0.00 0.08 0.01 44 1006.5
20260505214821 54 360 2.0 6.0 0.00 0.08 0.01 43 1006.5
20260505213321 54 360 4.0 6.0 0.00 0.08 0.01 42 1006.6
20260505212821 54 360 4.0 6.0 0.00 0.08 0.01 43 1006.6
20260505212321 54 360 6.0 6.0 0.00 0.08 0.01 43 1006.5
20260505211821 54 360 6.0 6.0 0.00 0.08 0.01 43 1006.5
20260505211321 54 360 8.0 6.0 0.00 0.08 0.01 41 1006.6
20260505210321 54 360 10.0 6.0 0.00 0.08 0.01 43 1006.6
20260505205821 54 360 8.0 6.0 0.00 0.08 0.01 42 1006.7
20260505205321 54 360 4.0 6.0 0.00 0.08 0.01 42 1006.7
20260505204821 54 360 6.0 6.0 0.00 0.08 0.01 43 1006.8
20260505202321 54 360 8.0 6.0 0.00 0.08 0.01 43 1006.5
20260505201321 54 360 6.0 6.0 0.00 0.08 0.01 43 1006.6
20260505200821 54 360 2.0 6.0 0.00 0.08 0.01 41 1006.6
20260505200321 53 360 1.0 6.0 0.00 0.08 0.01 44 1006.3
20260505195821 53 360 2.0 6.0 0.00 0.08 0.01 46 1006.3
20260505195321 53 360 4.0 6.0 0.00 0.08 0.01 42 1006.5
20260505194321 53 360 6.0 6.0 0.00 0.08 0.01 43 1006.5
20260505193821 53 360 5.0 6.0 0.00 0.08 0.01 45 1006.6
20260505193321 53 360 6.0 6.0 0.00 0.08 0.01 45 1006.5
20260505192821 53 360 4.0 6.0 0.00 0.08 0.01 44 1006.5
20260505192321 53 360 8.0 6.0 0.00 0.08 0.01 44 1006.4
20260505191821 53 360 6.0 6.0 0.00 0.08 0.01 45 1006.4
20260505191321 53 360 5.0 6.0 0.00 0.08 0.01 44 1006.5
20260505190321 52 360 3.0 6.0 0.00 0.08 0.01 45 1006.4
20260505185821 52 360 6.0 6.0 0.00 0.08 0.01 47 1006.4
20260505185321 53 360 5.0 6.0 0.00 0.08 0.01 47 1006.4
20260505184821 53 360 3.0 6.0 0.00 0.08 0.01 45 1006.3
20260505184321 52 360 0.0 6.0 0.00 0.08 0.01 49 1006.2
20260505183321 52 360 2.0 6.0 0.00 0.08 0.01 49 1006.0
20260505182821 52 360 4.0 6.0 0.00 0.08 0.01 48 1005.9
20260505182321 52 360 2.0 6.0 0.00 0.08 0.01 51 1005.8
20260505181821 52 360 8.0 6.0 0.00 0.08 0.01 49 1005.8
20260505181321 52 360 3.0 6.0 0.00 0.08 0.01 48 1005.8
20260505180822 51 360 10.0 10.0 0.00 0.08 0.01 50 1005.8
20260505175322 51 360 1.0 10.0 0.00 0.08 0.01 48 1005.8
20260505174322 51 360 3.0 10.0 0.00 0.08 0.01 50 1005.8
20260505173822 51 360 9.0 10.0 0.00 0.08 0.01 49 1005.7
20260505172320 51 360 1.0 0.0 0.00 0.08 0.01 52 1005.6
20260505171820 52 360 0.0 0.0 0.00 0.08 0.01 53 1005.6
20260505171320 52 360 4.0 0.0 0.00 0.08 0.01 51 1005.6
20260505170820 51 360 4.0 0.0 0.00 0.08 0.01 54 1005.6
20260505170320 51 360 2.0 0.0 0.00 0.08 0.01 54 1005.5
20260505165820 51 360 4.0 0.0 0.00 0.08 0.01 54 1005.5
20260505164850 51 360 2.0 0.0 0.00 0.08 0.01 54 1005.6
20260505163820 50 360 6.0 0.0 0.00 0.08 0.01 55 1005.5
20260505163320 50 360 2.0 0.0 0.00 0.08 0.01 61 1005.5
20260505162820 50 360 1.0 0.0 0.00 0.08 0.01 59 1005.4
20260505162320 49 360 1.0 0.0 0.00 0.08 0.01 60 1005.3
20260505161820 49 360 3.0 0.0 0.00 0.08 0.01 56 1005.4
20260505160820 49 360 6.0 0.0 0.00 0.08 0.01 60 1005.4
20260505160320 49 360 12.0 0.0 0.00 0.08 0.01 57 1005.4
20260505152820 48 360 3.0 0.0 0.00 0.08 0.01 63 1005.4
20260505152320 48 360 3.0 0.0 0.00 0.08 0.01 61 1005.4
20260505151820 48 360 5.0 0.0 0.00 0.08 0.01 60 1005.3
20260505151320 48 360 3.0 0.0 0.00 0.08 0.01 62 1005.3